Weather History for Resia Pass, Italy

Change the Weather History Date:

Tuesday, September 4, 2012

  Actual Average Record
Temperature  
Mean Temperature 56 °F -  
Max Temperature 60 °F 62 °F 84 °F (2006)
Min Temperature 53 °F 45 °F 37 °F (2003)
Degree Days  
Heating Degree Days 8    
Growing Degree Days 6 (Base 50)    
Moisture  
Dew Point 53 °F    
Average Humidity 88    
Maximum Humidity 100    
Minimum Humidity 68    
Precipitation  
Precipitation 0.00 in - - ()
Sea Level Pressure  
Sea Level Pressure 30.17 in    
Wind  
Wind Speed 3 mph ()    
Max Wind Speed 7 mph    
Max Gust Speed -    
Visibility 6.2 miles    
Events      
Averages and records for this station are not official NWS values.
T = Trace of Precipitation, MM = Missing Value Source: Averaged Metar Reports

Daily Weather History Graph

Daily Weather History Graph

Search for Another Location

Airport:

Trip Planner

Search our weather history database for the weather conditions in past years. The results will help you decide how hot, cold, wet, or windy it might be!

Date:

Astronomy

Sep. 04, 2012 Rise Set
Actual Time 6:41 AM CEST 7:51 PM CEST
Civil Twilight 6:10 AM CEST 8:22 PM CEST
Nautical Twilight 5:33 AM CEST 8:59 PM CEST
Astronomical Twilight 4:53 AM CEST 9:39 PM CEST
Moon 9:14 PM CEST (9/4) 10:51 AM CEST (9/4)
Length of Visible Light 14h 11m
Length of Day
13h 09m
Waning Gibbous, 85% of the Moon is Illuminated
Sep 4
Waning Gibbous
Sep 8
Last Quarter
Sep 16
New
Sep 22
First Quarter
Sep 30
Full

Hourly Weather History & Observations

Time (CEST) Temp. Dew Point Humidity Pressure Visibility Wind Dir Wind Speed Gust Speed Precip Events Conditions
12:55 AM 55.4 °F 53.6 °F 94% 30.18 in 6.2 mi North 3.5 mph - N/A   Scattered Clouds
1:55 AM 55.4 °F 53.6 °F 94% 30.18 in 6.2 mi North 3.5 mph - N/A   Scattered Clouds
2:55 AM 55.4 °F 53.6 °F 94% 30.18 in 6.2 mi North 3.5 mph - N/A   Scattered Clouds
3:55 AM 55.4 °F 53.6 °F 94% 30.18 in - North 3.5 mph - N/A   Clear
4:55 AM 55.4 °F 53.6 °F 94% 30.18 in - North 4.6 mph - N/A   Clear
5:55 AM 55.4 °F 53.6 °F 94% 30.15 in - North 3.5 mph - N/A   Clear
6:55 AM 55.4 °F 53.6 °F 94% 30.15 in - Calm Calm - N/A   Clear
7:55 AM 53.6 °F 51.8 °F 94% 30.15 in 6.2 mi SE 6.9 mph - N/A   Scattered Clouds
8:55 AM 53.6 °F 53.6 °F 100% 30.18 in 6.2 mi Calm Calm - N/A   Scattered Clouds
9:55 AM 55.4 °F 55.4 °F 100% 30.18 in 6.2 mi NNE 3.5 mph - N/A   Scattered Clouds
10:55 AM 57.2 °F 53.6 °F 88% 30.15 in 6.2 mi NNW 3.5 mph - N/A   Scattered Clouds
11:55 AM 57.2 °F 50.0 °F 77% 30.18 in 6.2 mi South 6.9 mph - N/A   Mostly Cloudy
12:55 PM 55.4 °F 53.6 °F 94% 30.18 in 6.2 mi SSE 6.9 mph - N/A   Scattered Clouds
1:55 PM 55.4 °F 53.6 °F 94% 30.18 in 6.2 mi SSW 6.9 mph - N/A   Scattered Clouds
2:55 PM 59.0 °F 53.6 °F 82% 30.18 in 6.2 mi SSW 5.8 mph - N/A   Scattered Clouds
3:55 PM 59.0 °F 50.0 °F 72% 30.18 in 6.2 mi SW 3.5 mph - N/A   Mostly Cloudy
4:55 PM 59.0 °F 51.8 °F 77% 30.15 in 6.2 mi South 3.5 mph - N/A   Partly Cloudy
5:55 PM 60.8 °F 50.0 °F 68% 30.12 in - WSW 5.8 mph - N/A   Clear
6:55 PM 60.8 °F 53.6 °F 77% 30.15 in - WSW 3.5 mph - N/A   Clear
7:55 PM 59.0 °F 53.6 °F 82% 30.15 in - Calm Calm - N/A   Clear
8:55 PM 55.4 °F 51.8 °F 88% 30.15 in - North 2.3 mph - N/A   Clear
9:55 PM 55.4 °F 51.8 °F 88% 30.15 in - North 3.5 mph - N/A   Clear
10:55 PM 53.6 °F 50.0 °F 88% 30.15 in - NNE 4.6 mph - N/A   Clear
11:55 PM 53.6 °F 50.0 °F 88% 30.18 in - NNE 3.5 mph - N/A   Clear